Wind_Speed
5 4 3 2 2 2 2 2 2 3 4 5 5 5 6 6 7 8 8 8 9 10 10 11 11 10 10 10 10 10 10 10 11 11 11 11 11 10 10 10 10 10 11
5 4 3 2 2 2 2 2 3 3 4 4 5 5 6 7 8 8 8 9 9 10 11 11 10 11 11 11 11 11 11 11 10 11 12 12 12 12 11 12 12 11 12
5 5 5 4 4 3 4 4 4 4 4 5 6 6 7 8 8 9 9 9 9 10 11 12 11 11 12 12 11 11 11 11 11 11 11 12 12 13 13 13 12 13 13
6 6 6 5 5 5 5 5 4 5 5 6 7 7 8 8 9 9 10 10 11 11 12 12 13 13 13 14 13 13 12 12 12 12 12 12 12 12 13 13 13 14 14
7 7 7 6 6 6 6 6 6 6 6 7 8 8 9 9 10 10 11 12 13 13 13 13 14 14 14 15 15 15 14 14 14 14 13 13 13 13 13 13 13 13 14
7 7 7 7 7 7 7 7 7 7 8 8 8 9 10 11 11 12 13 13 14 14 15 15 15 15 15 16 16 16 16 16 15 16 15 15 14 14 14 14 14 15 15
8 8 8 8 8 8 7 8 8 8 8 9 9 10 10 11 12 12 13 13 13 14 14 15 15 15 16 17 17 17 17 17 17 17 17 16 16 16 16 16 16 16 16
8 9 10 10 9 9 8 9 9 8 9 9 10 11 11 11 12 13 13 14 13 14 14 15 16 16 17 17 18 18 18 18 18 18 18 17 17 17 17 17 17 18 17
8 9 10 11 11 10 9 9 9 10 10 10 11 11 12 13 13 14 14 15 15 15 15 16 17 18 18 18 19 19 19 19 18 19 19 19 19 19 18 18 18 18 18
9 9 10 11 11 11 10 10 11 11 11 11 12 12 13 14 14 14 14 15 15 15 16 17 18 19 19 19 19 20 19 19 19 20 20 20 20 19 19 19 18 18 18
9 10 11 11 11 11 11 11 12 12 13 13 14 14 15 15 16 16 16 16 16 16 16 17 18 19 19 20 20 20 20 20 20 20 21 21 21 20 20 20 19 19 19
11 12 12 12 12 12 13 13 13 13 14 15 15 16 16 16 17 17 17 17 17 18 18 18 18 19 19 20 20 20 20 20 20 21 22 22 22 21 20 20 21 21 21
13 14 15 15 14 14 14 14 15 15 15 15 16 16 16 16 17 17 18 18 18 19 19 19 18 18 18 18 19 20 20 20 21 22 22 22 21 21 21 22 23 23 23
15 16 16 16 16 16 16 16 16 16 15 16 16 16 16 17 17 17 18 18 19 19 19 18 18 19 19 18 18 19 20 20 20 21 22 22 22 22 22 23 23 24 24
16 17 18 17 17 17 17 18 17 16 16 16 16 16 17 17 17 18 18 18 18 18 17 17 18 18 19 20 20 19 19 20 21 21 21 22 22 23 23 24 25 25 25
17 18 19 18 18 18 18 19 18 18 18 18 17 17 18 18 17 18 18 18 19 18 18 18 19 19 19 20 21 20 20 20 20 21 22 22 23 23 24 24 25 26 25
18 18 19 19 19 19 19 19 19 19 19 19 20 19 19 19 18 18 19 19 20 20 19 19 20 20 20 21 21 22 22 21 21 22 22 22 23 24 24 24 25 25 25
19 19 20 20 20 21 21 21 21 21 21 21 20 19 20 20 19 19 20 20 20 20 20 20 21 21 21 21 22 23 23 23 23 23 23 23 24 24 24 24 24 25 26
20 21 21 21 22 22 22 22 22 22 22 22 22 21 20 20 21 21 20 21 21 21 21 21 21 22 22 23 23 23 24 24 24 24 24 24 25 25 25 25 25 26 26
21 22 22 22 23 23 24 23 23 23 23 24 24 22 22 21 21 22 21 21 20 21 21 21 22 23 23 23 23 23 24 24 25 25 25 25 26 26 26 25 25 26 26
22 23 24 24 24 24 24 23 23 24 24 24 24 24 23 22 22 22 21 21 20 20 20 21 22 22 23 23 23 23 24 24 25 25 26 26 26 27 27 27 26 26 27
24 24 24 24 25 25 25 25 25 25 25 24 24 23 23 23 22 22 22 22 22 21 22 22 23 23 23 24 25 25 25 26 26 26 27 28 28 28 28 28 28 27 28
25 25 25 25 26 26 26 26 26 26 25 25 24 24 23 23 23 23 23 23 23 23 23 23 23 23 24 24 25 25 25 25 26 27 27 27 28 28 28 28 28 28 28
27 27 27 27 27 26 27 27 27 26 26 25 24 23 24 23 23 23 23 23 24 24 24 23 23 24 25 25 26 26 26 26 26 26 27 27 27 28 27 28 28 28 28
28 28 28 28 28 28 28 28 28 27 26 25 24 24 24 24 24 24 24 24 25 25 24 24 24 24 25 26 26 26 26 26 26 27 28 28 27 28 28 28 29 29 29
28 28 28 28 29 29 30 30 30 28 27 26 25 25 25 25 25 25 25 25 25 25 25 24 24 25 26 26 26 27 27 28 28 27 28 28 28 28 28 28 29 30 30
Wind_Direction
39 22 8 14 7 358 336 324 287 263 258 253 254 258 258 262 266 268 268 268 262 260 261 265 261 257 257 261 263 265 266 266 264 263 262 263 264 264 261 256 251 250 254
42 31 23 14 358 348 336 315 292 273 269 267 268 269 266 265 268 269 273 270 266 264 263 265 265 259 259 261 262 264 266 265 263 261 260 261 264 266 264 261 251 253 254
29 22 7 1 356 346 334 322 307 291 284 279 275 275 277 274 270 270 270 270 268 269 268 263 265 262 260 260 260 263 264 263 261 261 263 263 264 266 266 263 258 257 255
24 14 6 2 359 352 342 330 313 299 292 288 280 275 275 274 271 267 267 269 268 270 270 265 263 262 263 262 261 261 262 264 262 260 262 264 264 266 267 264 265 261 258
13 9 3 358 352 341 331 327 315 305 297 293 288 282 278 276 273 271 270 269 267 267 268 267 262 263 265 262 261 262 263 264 263 262 263 264 264 265 266 265 265 265 263
2 358 352 345 338 330 321 316 313 306 297 297 293 288 284 280 277 275 275 273 270 268 266 265 264 263 263 262 261 262 263 263 264 264 263 264 264 266 266 267 266 265 265
355 353 348 342 334 328 322 316 311 306 299 294 293 289 286 285 282 278 276 276 274 269 267 266 268 264 262 261 263 263 262 262 262 264 262 263 263 266 265 265 267 267 267
349 349 345 342 337 328 320 316 310 305 301 296 292 287 280 279 279 280 277 275 274 272 270 268 269 268 266 263 264 265 265 263 260 261 261 262 264 266 267 267 267 267 267
338 340 340 340 336 332 322 316 310 306 302 297 294 287 281 279 279 281 281 277 275 273 273 271 270 270 270 267 266 266 267 265 261 259 260 260 261 264 267 267 265 265 266
332 328 332 333 331 331 324 313 310 305 301 298 294 291 285 280 279 280 280 279 277 276 274 270 270 270 269 269 269 269 267 264 260 259 259 260 261 262 264 266 266 264 266
326 324 324 324 324 324 321 313 308 305 302 297 295 293 289 280 278 279 280 280 279 277 275 273 271 270 270 268 267 266 266 264 261 261 260 260 262 262 263 264 265 264 264
322 320 317 316 316 316 318 318 312 305 303 301 297 294 291 284 280 279 280 281 281 278 276 275 271 270 271 269 266 265 265 263 263 263 263 263 263 262 263 264 264 264 265
314 314 313 312 309 311 312 312 315 313 306 305 301 295 292 287 284 283 283 283 282 280 277 275 272 271 271 271 268 267 268 267 265 263 263 264 263 261 262 265 265 265 266
310 309 307 306 306 308 310 310 309 310 307 303 301 296 293 290 287 285 285 284 282 281 278 276 274 271 271 272 270 270 270 268 266 265 263 263 264 261 261 263 264 265 266
303 305 306 301 300 302 305 306 304 304 305 304 302 298 296 291 288 287 286 285 284 282 281 278 277 275 274 272 272 273 272 270 268 265 265 263 264 263 262 264 265 266 267
302 303 306 302 301 300 302 302 303 306 304 302 301 300 298 295 290 288 287 285 283 282 282 280 278 278 277 274 272 271 272 271 270 269 268 265 265 264 264 265 265 265 267
299 303 304 302 302 302 302 302 302 301 302 301 300 297 297 295 291 287 286 285 285 284 282 280 279 278 277 275 273 273 273 271 270 270 268 268 267 266 266 267 267 267 268
296 299 301 301 301 300 298 299 299 301 299 300 301 299 295 293 290 288 285 284 283 281 279 279 278 276 276 276 275 275 273 270 270 270 269 270 271 272 271 268 269 268 268
296 299 299 299 299 299 299 298 297 298 299 298 297 297 296 294 292 289 287 285 283 281 280 279 278 277 277 277 276 276 274 271 269 269 270 269 270 272 273 269 269 269 268
296 298 299 299 299 299 300 298 297 298 298 298 297 296 294 293 292 290 287 286 286 284 282 280 279 278 279 278 278 278 276 274 271 271 271 269 269 271 272 272 272 270 269
296 297 297 297 296 296 299 300 299 301 300 300 297 296 293 290 291 289 287 286 285 285 284 283 282 281 281 281 281 281 279 278 275 273 274 273 272 272 272 273 274 272 270
295 296 296 297 296 296 297 298 299 300 300 298 296 293 290 288 289 288 289 287 286 285 285 285 286 286 286 286 284 283 281 278 275 274 273 272 272 273 273 273 273 272 270
293 293 294 295 296 296 295 295 296 297 297 296 294 291 290 288 288 288 287 287 286 284 284 284 284 286 288 287 285 284 282 279 276 273 272 271 271 272 273 273 273 271 270
292 293 293 294 295 295 294 293 293 293 295 294 292 291 290 289 289 289 288 287 286 285 284 283 285 286 287 287 285 283 281 280 279 277 274 275 274 274 273 273 273 273 271
292 294 294 294 293 293 293 293 292 291 291 289 289 289 290 291 290 289 288 287 287 286 284 283 285 285 285 286 286 285 282 279 278 278 277 275 274 274 273 272 271 271 272
290 291 293 292 292 290 290 291 290 289 287 287 287 287 287 288 289 289 288 288 289 287 285 283 284 286 287 288 287 285 284 282 280 279 279 278 277 276 274 272 271 271 273
Height
5893 5892 5892 5891 5891 5891 5890 5890 5890 5890 5891 5891 5891 5891 5891 5891 5892 5891 5892 5892 5892 5893 5893 5894 5894 5895 5895 5895 5896 5896 5896 5896 5896 5897 5897 5897 5897 5897 5897 5897 5897 5898 5899
5893 5892 5891 5891 5890 5890 5890 5889 5889 5889 5889 5889 5889 5889 5889 5889 5889 5890 5890 5890 5890 5891 5891 5891 5892 5892 5893 5893 5893 5894 5894 5894 5894 5894 5894 5894 5895 5895 5895 5895 5895 5895 5896
5893 5892 5891 5891 5890 5890 5889 5889 5888 5888 5888 5888 5888 5888 5888 5887 5887 5887 5888 5888 5888 5889 5889 5889 5889 5889 5890 5890 5891 5891 5891 5891 5891 5892 5892 5892 5892 5892 5892 5892 5892 5893 5893
5893 5892 5891 5890 5889 5888 5888 5888 5887 5887 5887 5886 5886 5886 5886 5885 5885 5885 5885 5886 5886 5886 5886 5886 5886 5887 5887 5887 5887 5888 5888 5888 5889 5889 5889 5889 5889 5889 5889 5889 5890 5890 5890
5893 5892 5891 5889 5888 5887 5887 5886 5886 5885 5885 5885 5884 5884 5884 5883 5883 5883 5883 5883 5883 5883 5883 5883 5883 5883 5883 5884 5884 5884 5885 5885 5885 5886 5886 5886 5886 5886 5886 5886 5887 5887 5887
5893 5892 5890 5889 5888 5887 5886 5885 5885 5884 5883 5883 5882 5882 5882 5881 5880 5880 5880 5880 5880 5880 5880 5879 5879 5879 5880 5880 5880 5880 5881 5881 5882 5882 5882 5882 5883 5883 5883 5883 5883 5883 5884
5893 5891 5890 5888 5887 5885 5884 5883 5882 5882 5881 5881 5880 5880 5879 5878 5878 5877 5877 5876 5876 5876 5876 5875 5875 5875 5875 5876 5876 5876 5877 5877 5878 5878 5878 5879 5879 5879 5879 5879 5879 5880 5880
5892 5890 5889 5887 5885 5884 5882 5881 5880 5879 5879 5878 5877 5877 5876 5876 5874 5874 5873 5873 5872 5872 5872 5871 5871 5871 5871 5871 5872 5872 5872 5873 5873 5874 5874 5875 5875 5875 5875 5875 5875 5875 5876
5890 5889 5888 5886 5884 5882 5880 5879 5878 5877 5876 5875 5874 5874 5873 5872 5871 5871 5870 5869 5869 5868 5868 5867 5867 5867 5867 5867 5867 5867 5867 5868 5868 5869 5870 5870 5870 5870 5870 5870 5870 5871 5871
5889 5887 5886 5884 5883 5880 5878 5877 5875 5874 5873 5872 5871 5870 5869 5868 5868 5867 5866 5865 5865 5864 5863 5863 5863 5862 5862 5862 5862 5863 5863 5863 5864 5864 5864 5865 5865 5865 5866 5866 5866 5866 5866
5888 5886 5884 5883 5881 5879 5876 5875 5873 5872 5871 5869 5868 5867 5866 5865 5864 5863 5862 5862 5861 5860 5859 5858 5858 5857 5857 5857 5857 5858 5858 5858 5859 5859 5859 5860 5860 5860 5861 5861 5861 5861 5862
5886 5884 5882 5880 5878 5876 5874 5872 5870 5869 5867 5866 5865 5864 5862 5861 5860 5859 5858 5857 5856 5855 5854 5854 5853 5853 5852 5852 5852 5852 5853 5853 5853 5853 5854 5854 5854 5855 5855 5856 5856 5856 5857
5883 5881 5879 5877 5875 5873 5871 5869 5868 5866 5864 5862 5861 5859 5858 5857 5856 5855 5854 5852 5851 5850 5850 5849 5848 5848 5847 5847 5847 5847 5847 5847 5847 5848 5848 5848 5848 5849 5850 5850 5850 5851 5851
5880 5878 5876 5874 5872 5870 5868 5866 5864 5862 5860 5859 5857 5855 5854 5852 5851 5850 5849 5848 5847 5846 5845 5844 5843 5843 5842 5842 5841 5841 5841 5841 5841 5842 5842 5842 5842 5843 5844 5844 5844 5844 5845
5876 5874 5872 5870 5868 5866 5864 5862 5860 5858 5856 5855 5853 5851 5849 5848 5847 5846 5844 5843 5842 5841 5840 5839 5838 5838 5837 5837 5836 5836 5836 5836 5835 5836 5836 5836 5836 5837 5837 5837 5838 5838 5838
5872 5870 5867 5865 5863 5861 5860 5858 5856 5854 5852 5850 5848 5847 5845 5843 5842 5841 5839 5838 5837 5836 5835 5834 5833 5832 5832 5831 5831 5831 5830 5830 5830 5829 5829 5829 5830 5830 5830 5830 5831 5831 5831
5867 5865 5863 5861 5859 5857 5855 5853 5851 5849 5847 5845 5843 5841 5840 5838 5837 5836 5834 5833 5832 5831 5830 5829 5828 5827 5826 5826 5825 5825 5824 5824 5824 5823 5823 5823 5823 5823 5823 5824 5824 5824 5824
5862 5860 5858 5856 5854 5852 5850 5848 5846 5844 5842 5840 5838 5836 5834 5833 5831 5830 5829 5828 5827 5825 5825 5823 5822 5821 5820 5820 5819 5818 5818 5818 5817 5817 5817 5817 5817 5816 5816 5817 5817 5817 5817
5857 5854 5852 5850 5849 5847 5844 5842 5840 5838 5836 5834 5832 5831 5829 5827 5826 5824 5823 5822 5821 5819 5818 5817 5816 5815 5814 5813 5813 5812 5811 5811 5811 5810 5810 5810 5810 5810 5809 5809 5809 5809 5809
5851 5849 5846 5844 5843 5841 5838 5836 5834 5833 5831 5829 5827 5825 5823 5822 5820 5818 5817 5815 5814 5813 5812 5811 5810 5809 5808 5807 5806 5805 5804 5804 5804 5803 5803 5803 5803 5802 5802 5802 5801 5801 5801
5845 5842 5840 5838 5836 5834 5832 5830 5828 5827 5825 5823 5820 5819 5817 5816 5814 5812 5811 5810 5808 5807 5806 5805 5804 5803 5802 5800 5799 5798 5797 5796 5796 5795 5795 5795 5795 5795 5794 5794 5793 5793 5793
5838 5836 5834 5831 5829 5827 5825 5824 5822 5820 5818 5816 5814 5812 5811 5809 5808 5806 5805 5804 5802 5801 5800 5799 5798 5796 5795 5793 5792 5791 5790 5789 5788 5788 5787 5787 5786 5786 5786 5786 5785 5785 5785
5831 5829 5827 5825 5823 5821 5819 5817 5815 5813 5812 5810 5808 5806 5804 5802 5801 5800 5798 5797 5796 5794 5794 5792 5791 5789 5788 5786 5785 5783 5782 5781 5780 5780 5779 5779 5778 5778 5777 5777 5777 5776 5776
5823 5821 5820 5818 5816 5813 5811 5809 5808 5806 5804 5803 5801 5799 5797 5796 5794 5793 5792 5790 5789 5788 5787 5785 5784 5782 5781 5779 5777 5776 5775 5773 5773 5772 5771 5770 5770 5769 5769 5768 5768 5768 5767
5816 5814 5812 5810 5808 5806 5804 5802 5800 5798 5797 5795 5793 5792 5791 5789 5788 5786 5785 5784 5782 5781 5779 5778 5776 5775 5773 5771 5770 5768 5767 5766 5765 5764 5762 5762 5762 5761 5760 5760 5759 5759 5759
5807 5806 5804 5802 5800 5798 5796 5794 5792 5790 5789 5787 5786 5785 5783 5782 5780 5779 5778 5776 5775 5773 5772 5770 5769 5767 5766 5764 5762 5760 5759 5757 5756 5756 5754 5753 5753 5752 5752 5751 5750 5750 5750